Location: Newark
(50.0306°N, 2.3272°E)
Time: 17:50:51
(UTC+00:00)

Vanguard 1 Rocket - Pass Details

Date: 18 December 2019
Orbit: 651 x 4226 km, 34.3° (Epoch: 28 January)

Event Time Altitude Azimuth Distance (km) Brightness Sun altitude
Rises 21:21:40 0° 258° (WSW) 8,067 12.6 -51.1°
Reaches altitude 10° 21:28:12 10° 253° (WSW) 6,633 12.0 -52.0°
Enters shadow 21:40:25 34° 225° (SW) 3,911 10.4 -53.7°
Maximum altitude 21:45:16 40° 193° (SSW) 3,163 - -54.3°
Drops below altitude 10° 21:54:50 10° 128° (SE) 3,794 - -55.5°
Sets 21:57:28 0° 120° (ESE) 4,431 - -55.8°
